Simultaneous Nadir Overpasses (SNOs) Predictions

Prediction of SNOs between GOES-17 and METOP-B Satellite Orbit:

Table of predicted SNOs for the next 14.0 days since TLE Epoch: 4/16/2022
Index Date Time (GOES-17) GOES-17 Lat,Lon METOP-B Lat,Lon Distance(km) Time Diff (sec)
1 04/16/2022 18:39:34 0.05,-137.18 0.16,-137.67 55.25 80
2 04/19/2022 06:40:35 -0.05,-137.16 -0.05,-137.27 12.44 80
3 04/21/2022 18:38:47 0.04,-137.13 -0.02,-136.83 33.98 80
4 04/23/2022 06:57:47 -0.04,-137.10 -0.98,-141.43 492.82 80
5 04/24/2022 06:34:28 -0.03,-137.08 0.14,-136.44 74.49 80
6 04/25/2022 18:53:19 0.03,-137.06 0.89,-140.99 447.67 80
7 04/26/2022 18:35:19 0.03,-137.05 -0.23,-136.00 119.72 80
8 04/28/2022 06:54:19 -0.03,-137.01 -0.83,-140.59 407.18 80
9 04/29/2022 06:30:59 -0.03,-136.99 0.30,-135.59 159.99 80
